Wind_Speed
6 4 6 13 13 4 3 3 5 5 6 7 10 6 11 10 8 7 10 12 16 13 5 10 17 16 13 14 15 15 15 13 16 18 15 12 10 7 6 4 4 6 7 10
2 7 10 8 6 6 6 4 7 9 2 4 8 10 10 5 9 9 12 9 7 7 6 6 17 22 21 19 17 18 18 18 18 19 17 13 11 8 6 4 3 3 3 4
7 7 5 6 4 5 6 6 4 6 2 2 2 5 4 5 3 5 4 5 8 10 9 7 8 11 15 17 18 20 21 20 19 16 13 9 5 2 0 2 4 5 7 9
6 6 6 5 6 7 7 7 6 5 3 3 2 3 4 3 3 2 2 5 7 8 6 6 7 13 20 21 21 20 17 15 11 8 5 3 3 3 5 7 8 10 11 12
6 3 2 4 7 7 8 4 3 1 4 2 5 4 5 2 2 1 3 4 4 4 6 8 8 15 21 23 22 21 18 15 12 9 7 5 6 6 8 11 14 16 17 18
7 2 3 6 4 5 6 6 8 4 3 2 2 5 5 2 1 2 2 5 6 7 8 7 10 18 18 18 16 14 10 5 4 4 4 5 7 8 10 14 15 19 22 23
2 4 4 6 3 1 5 6 2 2 3 5 4 2 7 2 4 5 8 8 8 8 7 7 8 5 5 6 4 4 5 9 6 3 3 4 8 9 10 12 15 17 21 23
6 3 6 4 6 7 3 5 6 6 4 4 3 4 5 5 7 5 6 8 7 7 5 6 5 6 6 7 9 10 11 11 11 10 10 10 11 13 14 14 17 19 21 22
4 2 2 4 1 4 4 2 4 7 3 3 3 4 5 4 5 8 8 7 5 6 5 6 6 10 15 16 15 13 10 9 11 13 15 17 19 21 24 25 26 27 29 29
4 3 1 3 1 5 3 6 3 3 5 4 4 3 4 3 6 5 6 4 3 5 6 6 6 14 14 12 9 8 10 13 16 19 23 27 29 30 30 30 32 31 32 32
5 3 3 1 1 5 1 2 5 5 4 4 2 5 4 7 5 7 6 4 6 7 7 6 5 8 8 8 9 11 14 18 21 24 27 29 31 29 28 26 24 25 26 24
2 4 4 3 2 2 1 3 4 4 5 2 3 5 4 8 6 8 7 8 7 8 8 6 4 3 5 8 9 12 18 22 25 28 29 28 28 29 27 24 25 25 25 27
5 1 3 3 4 4 1 1 4 5 3 6 5 4 0 7 5 4 9 6 5 5 5 4 4 4 7 10 16 22 25 26 28 26 26 28 29 29 28 27 28 27 28 27
5 4 4 6 4 4 4 5 4 5 3 3 5 3 2 3 5 4 5 6 6 5 5 4 5 5 10 17 22 23 24 23 24 25 23 23 25 27 27 28 29 28 28 28
3 3 2 1 2 2 1 3 5 6 4 5 4 6 4 3 6 5 5 5 5 4 4 4 5 5 12 17 19 19 21 24 23 23 22 22 25 25 26 27 28 29 28 26
4 3 2 1 1 2 4 6 7 6 4 5 6 5 5 3 6 5 6 5 3 2 5 6 5 5 10 15 18 22 23 22 21 23 23 23 22 23 23 24 26 29 29 29
3 4 3 2 3 3 6 11 11 6 6 8 8 9 6 4 7 5 4 4 1 4 5 6 6 9 15 17 19 21 22 22 22 22 22 23 22 24 23 24 26 27 28 29
4 4 2 2 3 2 5 4 5 5 1 4 4 4 7 5 5 5 3 3 4 5 5 6 9 14 17 17 20 21 21 23 21 22 22 21 21 23 23 24 26 28 29 29
2 4 3 4 3 6 4 2 2 3 2 2 7 7 6 7 4 1 2 3 2 4 5 10 16 18 21 21 21 23 22 21 19 21 21 21 21 23 24 26 27 29 31 31
2 4 4 2 2 3 4 3 3 1 2 5 8 6 7 5 2 2 3 4 6 11 14 15 18 18 20 21 23 21 22 20 20 20 23 24 24 24 26 28 29 31 31 32
4 2 4 3 2 6 6 4 4 5 5 4 4 6 5 3 2 2 4 6 8 11 14 17 17 18 20 23 22 21 21 20 21 23 24 25 23 25 28 29 30 29 30 29
5 5 3 3 2 6 1 3 2 4 2 6 5 3 7 6 4 5 5 6 8 11 15 16 17 18 21 20 20 20 20 22 23 23 24 25 27 28 28 29 30 25 25 26
2 5 4 6 5 4 3 3 1 3 4 3 6 5 7 5 3 3 3 6 6 10 14 16 17 21 20 19 19 20 22 23 23 23 23 24 29 29 29 27 27 21 21 21
3 4 1 1 2 3 3 2 2 4 7 8 10 6 4 5 3 2 2 4 5 11 13 17 19 19 21 22 21 21 23 22 22 23 23 23 27 29 29 25 24 19 17 18
1 4 4 2 4 4 3 4 5 9 10 12 8 5 6 5 3 1 3 4 8 12 15 18 19 19 21 24 23 22 22 22 22 23 23 23 24 25 26 25 23 19 20 17
3 5 4 5 7 5 4 6 9 10 8 8 9 5 4 4 4 1 4 7 9 13 16 18 20 20 23 24 24 23 23 23 23 23 20 21 24 25 24 23 22 23 18 18
Wind_Direction
176 152 198 219 220 250 239 261 278 254 215 138 218 222 224 226 201 184 195 208 207 219 183 186 192 190 188 179 176 173 168 159 171 180 188 167 144 148 155 156 186 228 246 261
142 220 218 216 219 217 240 267 271 276 275 154 151 232 252 235 208 192 198 206 202 172 162 157 172 175 181 179 166 148 142 138 138 135 125 121 130 122 126 100 64 33 355 323
183 236 136 179 235 213 226 194 238 248 341 104 67 321 334 230 143 128 120 141 165 174 156 155 159 159 164 155 150 137 128 122 115 111 113 114 118 99 64 287 287 284 295 294
219 241 242 291 251 190 252 196 218 261 144 210 57 260 310 347 108 83 106 123 172 168 146 135 134 124 135 131 129 125 122 118 115 120 138 166 202 227 257 263 275 285 289 290
231 209 221 239 225 171 229 154 150 97 108 88 333 77 250 326 112 319 346 76 112 94 107 111 116 132 139 140 142 143 149 158 163 168 183 199 215 264 288 285 287 292 289 289
216 234 206 222 239 201 151 75 52 50 71 77 224 126 298 269 204 178 105 121 124 125 126 120 131 147 154 154 157 159 159 147 177 208 236 255 270 272 276 279 286 283 283 280
218 224 235 207 244 103 76 85 17 353 7 216 340 66 234 287 304 216 153 152 160 150 139 148 159 154 116 136 134 87 92 65 60 34 351 339 337 331 318 310 309 305 300 293
175 246 187 194 198 187 153 155 151 192 190 230 4 224 250 289 269 166 144 148 141 151 79 68 87 91 83 86 88 89 81 68 50 36 23 9 355 340 328 320 314 309 308 306
160 271 310 51 16 130 188 124 160 104 33 78 229 272 322 30 61 127 144 146 132 82 116 100 79 97 99 91 84 77 63 39 14 358 345 337 333 327 321 315 308 303 299 296
237 142 103 310 342 53 147 152 74 14 140 221 282 270 231 174 163 151 66 66 99 98 76 87 94 109 108 98 79 46 21 7 355 344 338 331 326 323 319 314 309 305 301 300
151 125 258 56 183 173 68 95 59 105 124 156 174 255 226 209 159 135 144 79 106 96 90 77 73 79 69 43 23 13 2 349 341 334 328 324 320 317 313 307 303 300 302 300
63 140 163 171 55 3 16 160 130 145 216 213 155 258 335 147 146 136 136 137 136 136 135 122 105 63 23 9 360 349 338 333 332 330 326 321 316 314 312 307 309 311 304 303
171 63 109 6 354 17 186 179 109 109 73 189 159 256 99 82 92 150 143 143 116 103 85 84 62 9 352 349 340 334 332 330 330 327 321 316 315 317 315 313 312 306 303 298
97 141 161 192 193 153 164 158 150 133 143 188 216 240 277 90 157 143 125 117 107 83 50 19 355 345 341 335 331 327 322 325 322 319 316 309 311 311 305 303 305 307 305 302
83 132 132 142 113 103 174 174 185 191 183 180 212 207 237 234 185 160 123 110 91 62 27 343 331 327 328 323 320 319 319 319 318 317 312 307 306 302 299 298 302 301 296 290
2 140 111 119 100 238 252 244 234 216 211 237 231 248 216 120 106 139 140 117 86 10 336 325 325 324 317 320 322 321 320 320 317 311 305 302 298 296 295 296 291 287 290 291
80 125 94 243 356 7 301 232 221 200 202 190 208 220 162 161 151 160 150 122 100 325 317 326 323 319 321 319 316 311 313 314 309 306 302 301 299 296 295 291 287 284 286 287
119 96 85 124 14 225 239 287 220 194 257 284 224 176 169 149 134 122 103 108 342 334 325 326 320 319 314 312 311 307 309 304 301 297 294 299 298 295 296 294 291 292 290 286
113 114 132 142 218 296 315 27 107 159 291 307 126 104 91 86 73 29 81 50 12 326 335 319 322 315 315 313 314 312 306 302 297 297 298 297 301 298 297 293 294 294 293 289
104 95 110 168 216 233 241 311 329 160 298 180 126 122 121 119 34 279 22 6 358 354 340 327 324 317 315 314 312 308 308 303 299 302 301 302 298 295 294 297 295 293 290 286
131 118 163 169 199 284 253 287 322 96 234 115 99 122 136 106 143 117 13 9 356 338 330 326 322 315 313 314 313 305 303 298 302 303 301 298 299 299 298 297 292 289 292 297
150 161 175 141 165 267 9 338 191 208 116 132 107 104 101 114 94 36 22 355 342 329 325 321 319 319 319 317 316 308 303 308 307 304 300 306 309 307 303 294 292 290 301 303
165 175 182 173 211 236 295 206 120 128 118 102 94 81 107 104 61 35 359 344 312 315 329 333 331 323 322 322 315 307 311 312 308 306 306 306 312 306 299 294 295 295 304 307
208 165 115 60 1 247 205 347 143 127 114 116 110 113 106 117 95 67 347 322 314 324 326 335 331 327 323 327 325 318 315 314 313 310 308 313 306 301 303 300 293 289 299 309
21 136 125 275 300 323 255 201 116 95 103 102 89 99 120 121 95 75 359 330 318 327 328 337 332 319 322 330 329 327 324 324 315 312 313 309 303 303 303 303 296 293 299 306
200 186 164 220 212 174 233 161 132 125 121 118 120 107 97 96 91 9 316 318 333 334 338 342 330 328 332 333 332 333 333 327 319 313 311 307 305 304 304 306 301 310 316 322
Height
760 772 776 766 763 753 748 753 753 742 731 741 751 739 732 727 735 734 732 734 732 736 732 733 737 737 739 741 742 743 745 749 753 758 762 767 770 772 773 774 775 777 777 778
759 766 753 749 751 753 753 754 756 740 727 733 744 745 736 729 726 727 727 727 731 733 733 733 734 736 738 739 742 744 747 749 754 757 761 765 768 770 771 773 774 773 774 775
756 745 737 743 744 749 750 751 747 745 730 729 734 743 740 725 719 720 723 725 728 728 730 732 735 736 738 740 743 746 749 753 756 758 761 764 767 769 771 772 773 773 773 773
745 735 736 738 743 743 749 733 734 739 743 757 740 765 736 730 725 723 724 729 728 726 728 731 734 736 740 743 745 748 751 754 757 759 761 764 766 769 770 770 770 769 769 769
740 732 733 739 735 729 736 723 728 736 749 748 747 760 746 737 731 728 727 729 732 732 733 735 737 740 743 746 750 752 756 757 758 760 761 761 762 763 764 765 764 765 765 764
731 720 723 727 717 718 720 732 745 756 760 768 747 758 757 740 727 733 732 735 735 736 736 738 740 743 746 748 751 754 757 759 760 761 762 762 762 761 761 762 762 762 761 761
728 727 718 715 723 718 728 742 776 773 776 774 757 760 751 733 727 728 734 737 737 737 739 740 742 745 748 751 753 755 756 758 758 759 760 760 760 759 758 758 758 757 755 754
744 742 720 708 716 725 727 737 770 768 780 769 755 761 745 732 730 726 730 734 737 740 744 746 747 748 749 751 752 754 755 756 757 758 758 758 757 758 758 756 754 752 751 749
739 731 711 710 707 713 729 742 738 765 768 775 767 748 735 729 733 732 736 737 741 746 746 747 749 750 751 752 754 756 759 759 758 757 756 755 754 753 751 750 748 746 745 744
718 731 718 714 710 714 719 727 753 765 773 772 766 753 752 737 736 736 742 744 743 748 754 755 755 756 757 758 759 759 758 757 755 754 752 749 747 746 745 743 740 738 737 735
718 725 730 720 724 728 728 735 748 756 770 781 784 764 736 734 735 740 738 743 750 753 756 757 758 758 758 758 757 756 755 755 753 751 749 746 744 742 741 738 735 733 730 728
721 731 741 730 726 726 726 731 742 761 759 769 773 761 728 729 732 739 745 748 752 752 754 757 758 759 759 759 758 757 755 753 751 748 745 742 740 736 732 729 726 723 721 720
718 736 747 741 735 729 732 735 742 754 763 766 772 761 729 737 742 742 745 749 751 752 754 755 756 757 758 757 756 754 751 748 745 742 738 735 731 727 723 719 718 716 715 713
712 735 734 745 738 740 741 737 739 747 765 756 759 746 735 741 740 743 749 749 751 752 754 756 755 754 755 755 753 750 746 743 741 738 734 731 727 723 719 716 713 710 708 704
720 730 730 731 731 732 733 735 739 742 744 752 743 747 738 738 741 747 749 750 752 754 755 756 756 755 754 753 750 747 743 740 737 734 730 726 723 719 715 711 708 706 703 699
734 741 733 736 733 733 737 736 735 738 739 743 740 744 733 742 745 749 748 749 752 754 755 755 755 754 753 751 747 743 740 737 735 731 726 723 720 716 712 708 705 701 696 692
738 745 747 745 744 740 746 732 731 732 730 733 744 733 737 742 744 749 750 751 754 756 756 755 753 752 750 748 745 742 738 735 732 728 724 720 716 712 707 704 699 693 688 685
743 749 757 759 751 759 731 723 722 726 729 730 727 728 732 735 743 747 750 753 756 757 756 755 753 751 749 745 742 739 735 732 728 724 719 715 712 707 703 698 692 687 683 678
738 750 751 759 749 743 723 723 725 726 732 727 733 735 737 743 747 751 753 756 757 756 755 753 751 748 744 741 738 735 730 727 723 718 714 710 707 703 697 690 684 680 676 670
738 742 756 750 746 749 733 723 721 720 737 729 729 736 740 743 747 751 756 756 755 755 754 752 749 746 742 738 734 730 726 723 718 713 708 705 702 697 690 685 680 675 670 662
744 745 744 751 769 749 729 724 722 741 740 730 733 738 742 743 750 757 758 758 758 756 754 752 748 743 739 735 731 726 723 718 714 708 704 700 695 690 684 679 674 667 661 656
735 740 741 747 757 756 725 723 727 733 732 732 735 738 742 751 755 757 759 760 758 756 753 749 743 739 735 731 728 723 719 714 709 704 699 693 688 684 679 674 667 660 656 649
733 735 746 741 746 733 727 726 727 729 732 736 739 745 747 753 758 760 761 759 758 755 750 746 740 735 732 729 726 719 714 709 704 699 693 689 684 678 673 666 659 654 651 645
724 726 732 729 731 730 727 727 727 728 732 737 740 747 751 756 759 760 758 758 755 751 747 743 738 733 729 726 721 716 710 705 700 693 689 685 680 673 666 660 654 649 645 640
726 723 728 733 731 730 728 728 731 734 737 741 747 751 755 757 759 758 757 756 754 749 745 742 737 733 727 722 717 713 707 702 696 690 685 681 676 669 662 655 649 645 642 638
731 731 733 734 725 726 725 728 733 737 743 746 750 755 757 757 758 758 757 754 751 748 743 740 737 732 726 720 715 709 704 699 693 687 683 678 672 665 658 650 643 641 638 633